Location: Düngen
(52.0952°N, 10.0219°E)
Time: 18:11:33
(UTC+00:00)

Meteor 2-4 Rocket - Pass Details

Date: 11 March 2026
Orbit: 797 x 907 km, 81.2° (Epoch: 20 April)

Event Time Altitude Azimuth Distance (km) Brightness Sun altitude
Rises 18:46:22 0° 345° (NNW) 3,418 7.3 -14.4°
Reaches altitude 10° 18:48:49 10° 344° (NNW) 2,462 6.5 -14.8°
Maximum altitude 18:54:22 76° 260° (W) 851 3.8 -15.6°
Drops below altitude 10° 18:59:44 10° 176° (S) 2,385 5.9 -16.4°
Sets 19:02:05 0° 175° (S) 3,303 6.6 -16.7°
